Weather History for Philip, SD

Change the Weather History Date:

Friday, May 3, 2013

  Actual Average Record
Temperature  
Mean Temperature 42 °F 53 °F  
Max Temperature 60 °F 67 °F 93 °F (1982)
Min Temperature 24 °F 39 °F 18 °F (1954)
Degree Days  
Heating Degree Days 23 13  
Month to date heating degree days 76 39  
Since 1 July heating degree days 6826 6906  
Cooling Degree Days 0 0  
Month to date cooling degree days 0 0  
Year to date cooling degree days 0 3  
Moisture  
Dew Point 18 °F    
Average Humidity 50    
Maximum Humidity 81    
Minimum Humidity 19    
Precipitation  
Precipitation 0.00 in 0.09 in 0.85 in (1991)
Month to date precipitation 0.00 0.28  
Year to date precipitation 3.18 4.17  
Sea Level Pressure  
Sea Level Pressure 30.29 in    
Wind  
Wind Speed 9 mph (East)    
Max Wind Speed 17 mph    
Max Gust Speed 24 mph    
Visibility 10 miles    
Events      
T = Trace of Precipitation, MM = Missing Value Source: NWS Daily Summary

Daily Weather History Graph

Daily Weather History Graph

Search for Another Location

Airport:

Trip Planner

Search our weather history database for the weather conditions in past years. The results will help you decide how hot, cold, wet, or windy it might be!

Date:

Astronomy

May. 03, 2013 Rise Set
Actual Time 5:34 AM MDT 7:52 PM MDT
Civil Twilight 5:02 AM MDT 8:24 PM MDT
Nautical Twilight 4:23 AM MDT 9:04 PM MDT
Astronomical Twilight 3:39 AM MDT 9:48 PM MDT
Moon 2:13 AM MDT (5/3) 1:36 PM MDT (5/3)
Length of Visible Light 15h 21m
Length of Day
14h 17m
Last Quarter, 36% of the Moon is Illuminated
May 3
Last Quarter
May 9
New
May 17
First Quarter
May 24
Full
May 31
Last Quarter

Hourly Weather History & Observations

Time (MDT) Temp. Windchill Dew Point Humidity Pressure Visibility Wind Dir Wind Speed Gust Speed Precip Events Conditions
12:55 AM 30.9 °F 23.5 °F 19.0 °F 61% 30.42 in 10.0 mi East 8.1 mph - N/A   Clear
1:55 AM 30.9 °F 22.8 °F 19.9 °F 64% 30.40 in 10.0 mi ENE 9.2 mph - N/A   Clear
2:55 AM 28.0 °F 20.0 °F 19.9 °F 72% 30.39 in 10.0 mi East 8.1 mph - N/A   Clear
3:55 AM 26.1 °F 18.4 °F 19.0 °F 75% 30.38 in 10.0 mi East 6.9 mph - N/A   Clear
4:55 AM 27.0 °F 18.0 °F 19.9 °F 75% 30.37 in 10.0 mi East 9.2 mph - N/A   Clear
5:55 AM 25.0 °F 16.3 °F 19.0 °F 78% 30.37 in 10.0 mi East 8.1 mph - N/A   Clear
6:55 AM 30.9 °F 22.8 °F 21.9 °F 69% 30.36 in 10.0 mi East 9.2 mph - N/A   Clear
7:55 AM 37.9 °F 31.5 °F 24.1 °F 57% 30.35 in 10.0 mi East 9.2 mph - N/A   Clear
8:55 AM 46.0 °F 39.6 °F 21.9 °F 39% 30.31 in 10.0 mi ESE 15.0 mph - N/A   Clear
9:55 AM 48.9 °F - 21.9 °F 35% 30.30 in 10.0 mi ESE 12.7 mph - N/A   Clear
10:55 AM 51.1 °F - 21.0 °F 31% 30.30 in 10.0 mi SE 8.1 mph 21.9 mph N/A   Clear
11:55 AM 54.0 °F - 21.0 °F 28% 30.27 in 10.0 mi East 12.7 mph 18.4 mph N/A   Clear
12:55 PM 57.0 °F - 21.9 °F 26% 30.25 in 10.0 mi East 10.4 mph 19.6 mph N/A   Clear
1:55 PM 57.9 °F - 21.0 °F 24% 30.24 in 10.0 mi East 10.4 mph - N/A   Clear
2:55 PM 59.0 °F - 21.0 °F 23% 30.22 in 10.0 mi East 11.5 mph 20.7 mph N/A   Clear
3:55 PM 59.0 °F - 18.0 °F 20% 30.19 in 10.0 mi NE 9.2 mph 19.6 mph N/A   Clear
4:55 PM 59.0 °F - 18.0 °F 20% 30.19 in 10.0 mi NE 8.1 mph - N/A   Clear
5:55 PM 57.0 °F - 18.0 °F 22% 30.19 in 10.0 mi East 10.4 mph - N/A   Clear
6:55 PM 54.0 °F - 12.9 °F 20% 30.19 in 10.0 mi ENE 12.7 mph - N/A   Clear
7:55 PM 45.0 °F 40.1 °F 12.9 °F 27% 30.21 in 10.0 mi ENE 9.2 mph - N/A   Clear
8:55 PM 39.0 °F 31.8 °F 12.0 °F 33% 30.22 in 10.0 mi NE 11.5 mph - N/A   Clear
9:55 PM 36.0 °F 33.3 °F 12.0 °F 37% 30.25 in 10.0 mi East 3.5 mph - N/A   Clear
10:55 PM 34.0 °F 29.8 °F 12.0 °F 40% 30.25 in 10.0 mi ENE 4.6 mph - N/A   Clear
11:55 PM 35.1 °F 30.1 °F 12.9 °F 40% 30.25 in 10.0 mi ENE 5.8 mph - N/A   Clear